OKEAN-O

Last updated on Sun Aug 31 2025 00:02:14 GMT+0000 (Coordinated Universal Time)

1 25860U 99039A 25242.13345955 .00000845 00000+0 11890-3 0 9999 2 25860 97.9766 298.6572 0000964 112.6780 247.4533 14.79903663406051
UTC large
Height (km)
Speed (km/s)
/
Latitude / Longitude
Inclination (degrees)
Orbital Period (minutes)
Azimuth
Elevation
Range (km)
Doppler Factor

Next 0 passes for location: London (51.5072 / 0.1276)

Sorry there are no passes over London.